• In United Kingdom
  • List of Countries
  • For 7 days
  • Water Temperature
  • Satellite Maps
  • Weather Map
  • Weather Widgets
  • user-avatar
    Login

    Hourly Weather Uige

    Today, 21 July, Saturday

    Time Temperature Precipitation Wind Pressure Humidity
    00:00 +21°C° 0 mm 1 mps 692 mmHg 48%
    01:00 +18°C° 0 mm 0 mps 692 mmHg 55%
    02:00 +18°C° 0 mm 0 mps 691 mmHg 56%
    03:00 +18°C° 0 mm 0 mps 691 mmHg 57%
    04:00 +17°C° 0 mm 0 mps 691 mmHg 58%
    05:00 +18°C° 0 mm 0 mps 691 mmHg 56%
    06:00 +20°C° 0 mm 1 mps 692 mmHg 53%
    07:00 +19°C° 0 mm 0 mps 692 mmHg 50%
    08:00 +25°C° 0 mm 1 mps 693 mmHg 41%
    09:00 +28°C° 0 mm 1 mps 694 mmHg 32%
    10:00 +32°C° 0 mm 2 mps 694 mmHg 23%
    11:00 +35°C° 0 mm 2 mps 694 mmHg 21%
    12:00 +36°C° 0 mm 2 mps 693 mmHg 18%
    13:00 +38°C° 0 mm 2 mps 693 mmHg 16%
    14:00 +37°C° 0 mm 1 mps 693 mmHg 16%
    15:00 +37°C° 0 mm 1 mps 692 mmHg 16%
    16:00 +36°C° 0 mm 1 mps 691 mmHg 15%
    17:00 +33°C° 0 mm 1 mps 691 mmHg 20%
    18:00 +30°C° 0 mm 1 mps 691 mmHg 24%
    19:00 +27°C° 0 mm 1 mps 691 mmHg 29%
    20:00 +26°C° 0 mm 1 mps 691 mmHg 37%
    21:00 +25°C° 0 mm 1 mps 692 mmHg 44%
    22:00 +24°C° 0 mm 1 mps 692 mmHg 52%
    23:00 +22°C° 0 mm 1 mps 692 mmHg 61%

    Tomorrow, 22 July, Sunday

    Time Temperature Precipitation Wind Pressure Humidity
    00:00 +21°C° 0 mm 1 mps 692 mmHg 69%
    01:00 +20°C° 0 mm 1 mps 692 mmHg 78%
    02:00 +20°C° 0 mm 1 mps 691 mmHg 82%
    03:00 +19°C° 0 mm 1 mps 691 mmHg 85%
    04:00 +19°C° 0 mm 1 mps 691 mmHg 89%
    05:00 +19°C° 0 mm 1 mps 691 mmHg 85%
    06:00 +20°C° 0 mm 1 mps 692 mmHg 80%
    07:00 +20°C° 0 mm 1 mps 692 mmHg 76%
    08:00 +24°C° 0 mm 1 mps 693 mmHg 58%
    09:00 +28°C° 0 mm 2 mps 693 mmHg 39%
    10:00 +34°C° 0 mm 2 mps 694 mmHg 21%
    11:00 +36°C° 0 mm 2 mps 694 mmHg 17%
    12:00 +38°C° 0 mm 2 mps 693 mmHg 14%
    13:00 +40°C° 0 mm 2 mps 693 mmHg 11%
    14:00 +39°C° 0 mm 1 mps 692 mmHg 11%
    15:00 +39°C° 0 mm 1 mps 692 mmHg 11%
    16:00 +37°C° 0 mm 1 mps 691 mmHg 11%
    17:00 +34°C° 0 mm 1 mps 691 mmHg 14%
    18:00 +31°C° 0 mm 1 mps 691 mmHg 18%
    19:00 +28°C° 0 mm 1 mps 691 mmHg 22%
    20:00 +26°C° 0 mm 2 mps 692 mmHg 35%
    21:00 +24°C° 0 mm 2 mps 692 mmHg 47%
    22:00 +23°C° 0 mm 2 mps 693 mmHg 60%
    23:00 +20°C° 0 mm 2 mps 692 mmHg 70%

    Day after tomorrow, 23 July, Monday

    Time Temperature Precipitation Wind Pressure Humidity
    00:00 +20°C° 0 mm 1 mps 692 mmHg 79%
    01:00 +19°C° 0 mm 1 mps 692 mmHg 89%
    02:00 +19°C° 0 mm 1 mps 692 mmHg 90%
    03:00 +18°C° 0 mm 1 mps 691 mmHg 92%
    04:00 +18°C° 0 mm 1 mps 691 mmHg 93%
    05:00 +19°C° 0 mm 1 mps 691 mmHg 87%
    06:00 +19°C° 0 mm 1 mps 692 mmHg 81%
    07:00 +19°C° 0 mm 1 mps 692 mmHg 75%
    08:00 +24°C° 0 mm 1 mps 693 mmHg 59%
    09:00 +28°C° 0 mm 2 mps 694 mmHg 42%
    10:00 +32°C° 0 mm 2 mps 695 mmHg 25%
    11:00 +35°C° 0 mm 2 mps 694 mmHg 21%
    12:00 +37°C° 0 mm 2 mps 694 mmHg 16%
    13:00 +39°C° 0 mm 2 mps 693 mmHg 11%
    14:00 +39°C° 0 mm 2 mps 692 mmHg 11%
    15:00 +39°C° 0 mm 2 mps 692 mmHg 11%
    16:00 +38°C° 0 mm 2 mps 691 mmHg 11%
    17:00 +35°C° 0 mm 2 mps 691 mmHg 16%
    18:00 +31°C° 0 mm 1 mps 691 mmHg 20%
    19:00 +28°C° 0 mm 1 mps 691 mmHg 25%
    20:00 +26°C° 0 mm 1 mps 692 mmHg 33%
    21:00 +25°C° 0 mm 1 mps 692 mmHg 41%
    22:00 +23°C° 0 mm 1 mps 693 mmHg 49%
    23:00 +22°C° 0 mm 1 mps 693 mmHg 57%

    24 July, Tuesday

    Time Temperature Precipitation Wind Pressure Humidity
    00:00 +21°C° 0 mm 1 mps 692 mmHg 64%
    01:00 +20°C° 0 mm 1 mps 692 mmHg 72%
    02:00 +20°C° 0 mm 1 mps 692 mmHg 76%
    03:00 +19°C° 0 mm 1 mps 691 mmHg 81%
    04:00 +17°C° 0 mm 0 mps 691 mmHg 85%
    05:00 +17°C° 0 mm 0 mps 692 mmHg 83%
    06:00 +17°C° 0 mm 0 mps 692 mmHg 82%
    07:00 +17°C° 0 mm 0 mps 692 mmHg 80%
    08:00 +24°C° 0 mm 1 mps 693 mmHg 63%
    09:00 +28°C° 0 mm 2 mps 694 mmHg 45%
    10:00 +32°C° 0 mm 2 mps 695 mmHg 28%
    11:00 +35°C° 0 mm 2 mps 694 mmHg 23%
    12:00 +37°C° 0 mm 2 mps 694 mmHg 18%
    13:00 +39°C° 0 mm 2 mps 693 mmHg 14%
    14:00 +39°C° 0 mm 2 mps 692 mmHg 13%
    15:00 +39°C° 0 mm 1 mps 692 mmHg 13%
    16:00 +37°C° 0 mm 1 mps 691 mmHg 13%
    17:00 +34°C° 0 mm 1 mps 691 mmHg 17%
    18:00 +31°C° 0 mm 1 mps 691 mmHg 22%
    19:00 +28°C° 0 mm 2 mps 691 mmHg 27%
    20:00 +27°C° 0 mm 1 mps 692 mmHg 37%
    21:00 +25°C° 0 mm 1 mps 692 mmHg 47%
    22:00 +23°C° 0 mm 1 mps 693 mmHg 56%
    23:00 +22°C° 0 mm 1 mps 693 mmHg 64%

    25 July, Wednesday

    Time Temperature Precipitation Wind Pressure Humidity
    00:00 +22°C° 0 mm 1 mps 692 mmHg 71%
    01:00 +21°C° 0 mm 1 mps 692 mmHg 78%
    02:00 +20°C° 0 mm 1 mps 692 mmHg 83%
    03:00 +19°C° 0 mm 1 mps 692 mmHg 87%
    04:00 +19°C° 0 mm 1 mps 691 mmHg 91%
    05:00 +19°C° 0 mm 1 mps 692 mmHg 91%
    06:00 +19°C° 0 mm 1 mps 692 mmHg 90%
    07:00 +17°C° 0 mm 0 mps 693 mmHg 89%
    08:00 +22°C° 0 mm 1 mps 694 mmHg 73%
    09:00 +26°C° 0 mm 1 mps 694 mmHg 58%
    10:00 +29°C° 0 mm 1 mps 695 mmHg 42%
    11:00 +32°C° 0 mm 1 mps 694 mmHg 34%
    12:00 +34°C° 0 mm 1 mps 694 mmHg 26%
    13:00 +37°C° 0 mm 1 mps 693 mmHg 19%
    14:00 +37°C° 0 mm 1 mps 693 mmHg 19%
    15:00 +37°C° 0 mm 2 mps 692 mmHg 18%
    16:00 +37°C° 0 mm 2 mps 691 mmHg 18%
    17:00 +34°C° 0 mm 2 mps 691 mmHg 23%
    18:00 +30°C° 0 mm 2 mps 692 mmHg 28%
    19:00 +28°C° 0 mm 2 mps 692 mmHg 34%
    20:00 +26°C° 0 mm 2 mps 692 mmHg 43%
    21:00 +25°C° 0 mm 1 mps 693 mmHg 51%
    22:00 +23°C° 0 mm 1 mps 693 mmHg 60%
    23:00 +22°C° 0 mm 1 mps 693 mmHg 67%

    26 July, Thursday

    Time Temperature Precipitation Wind Pressure Humidity
    00:00 +21°C° 0 mm 1 mps 692 mmHg 74%
    01:00 +20°C° 0 mm 1 mps 692 mmHg 80%
    02:00 +20°C° 0 mm 1 mps 692 mmHg 83%
    03:00 +19°C° 0 mm 2 mps 692 mmHg 86%
    04:00 +18°C° 0 mm 2 mps 692 mmHg 89%
    05:00 +18°C° 0 mm 2 mps 692 mmHg 87%
    06:00 +19°C° 0 mm 2 mps 693 mmHg 86%
    07:00 +19°C° 0 mm 2 mps 693 mmHg 85%
    08:00 +21°C° 0 mm 2 mps 694 mmHg 75%
    09:00 +24°C° 0 mm 2 mps 694 mmHg 65%
    10:00 +26°C° 0 mm 2 mps 695 mmHg 55%
    11:00 +28°C° 0 mm 1 mps 694 mmHg 46%
    12:00 +31°C° 0 mm 1 mps 694 mmHg 37%
    13:00 +34°C° 0 mm 1 mps 693 mmHg 28%
    14:00 +34°C° 0 mm 2 mps 693 mmHg 28%
    15:00 +34°C° 0 mm 2 mps 692 mmHg 28%
    16:00 +34°C° 0 mm 2 mps 692 mmHg 28%
    17:00 +30°C° 0 mm 2 mps 692 mmHg 35%
    18:00 +28°C° 0 mm 2 mps 692 mmHg 41%
    19:00 +26°C° 0 mm 3 mps 692 mmHg 47%
    20:00 +25°C° 0 mm 2 mps 693 mmHg 56%
    21:00 +23°C° 0 mm 2 mps 693 mmHg 64%
    22:00 +21°C° 0 mm 2 mps 693 mmHg 72%
    23:00 +20°C° 0 mm 2 mps 693 mmHg 79%
    Show more